EHI
0 0 0 0 0 0 0 0 0 0 0 0 0 0 0 0 0 0 0 0 0 0 0 0 0 0 0 0 0 0 0 0 0 0 0 0 0 0
0 0 0 0 0 0 0 0 0 0 0 0 0 0 0 0 0 0 0 0 0 0 0 0 0 0 0 0 0 0 0 0 0 0 0 0 0 0
0 0 0 0 0 0 0 0 0 0 0 0 0 0 0 0 0 0 0 0 0 0 0 0 0 0 0 0 0 0 0 0 0 0 0 0 0 0
0 0 0 0 0 0 0 0 0 0 0 0 0 0 0 0 0 0 0 0 0 0 0 0 0 0 0 0 0 0 0 0 0 0 0 0 0 0
0 0 0 0 0 0 0 0 0 0 0 0 0 0 0 0 0 0 0 0 0 0 0 0 0 0 0 0 0 0 0 0 0 0 0 0 0 0
0 0 0 0 0 0 0 0 0 0 0 0 0 0 0 0 0 0 0 0 0 0 0 0 0 0 0 0 0 0 0 0 0 0 0 0 0 0
0 0 0 0 0 0 0 0 0 0 0 0 0 0 0 0 0 0 0 0 0 0 0 0 0 0 0 0 0 0 0 0 0 0 0 0 0 0
0 0 0 0 0 0 0 0 0 0 0 0 0 0 0 0 0 0 0 0 0 0 0 0 0 0 0 0 0 0 0 0 0 0 0 0 0 0
0 0 0 0 0 0 0 0 0 0 0 0 0 0 0 0 0 0 0 0 0 0 0 0 0 0 0 0 0 0 0 0 0 0 0 0 0 0
0 0 0 0 0 0 0 0 0 0 0 0 0 0 0 0 0 0 0 0 0 0 0 0 0 0 0 0 0 0 0 0 0 0 0 0 0 0
0 0 0 0 0 0 0 0 0 0 0 0 0 0 0 0 0 0 0 0 0 0 0 0 0 0 0 0 0 0 0 0 0 0 0 0 0 0
0 0 0 0 0 0 0 0 0 0 0 0 0 0 0 0 0 0 0 0 0 0 0 0 0 0 0 0 0 0 0 0 0 0 0 0 0 0
0 0 0 0 0 0 0 0 0 0 0 0 0 0 0 0 0 0 0 0 0 0 0 0 0 0 0 0 0 0 0 0 0 0 0 0 0 0
0 0 0 0 0 0 0 0 0 0 0 0 0 0 0 0 0 0 0 0 0 0 0 0 0 0 0 0 0 0 0 0 0 0 0 0 0 0
0 0 0 0 0 0 0 0 0 0 0 0 0 0 0 0 0 0 0 0 0 0 0 0 0 0 0 0 0 0 0 0 0 0 0 0 0 0
0 0 0 0 0 0 0 0 0 0 0 0 0 0 0 0 0 0 0 0 0 0 0 0 0 0 0 0 0 0 0 0 0 0 0 0 0 0
0 0 0 0 0 0 0 0 0 0 0 0 0 0 0 0 0 0 0 0 0 0 0 0 0 0 0 0 0 0 0 0 0 0 0 0 0 0
0 0 0 0 0 0 0 0 0 0 0 0 0 0 0 0 0 0 0 0 0 0 0 0 0 0 0 0 0 0 0 0 0 0 0 0 0 0
0 0 0 0 0 0 0 0 0 0 0 0 0 0 0 0 0 0 0 0 0 0 0 0 0 0 0 0 0 0 0 0 0 0 0 0 0 0
0 0 0 0 0 0 0 0 0 0 0 0 0 0 0 0 0 0 0 0 0 0 0 0 0 0 0 0 0 0 0 0 0 0 0 0 0 0
0 0 0 0 0 0 0 0 0 0 0 0 0 0 0 0 0 0 0 0 0 0 0 0 0 0 0 0 0 0 0 0 0 0 0 0 0 0
0 0 0 0 0 0 0 0 0 0 0 0 0 0 0 0 0 0 0 0 0 0 0 0 0 0 0 0 0 0 0 0 0 0 0 0 0 0
0 0 0 0 0 0 0 0 0 0 0 0 0 0 0 0 0 0 0 0 0 0 0 0 0 0 0 0 0 0 0 0 0 0 0 0 0 0
Wind_Speed
2 2 1 1 1 2 2 3 4 2 1 1 1 2 1 1 2 2 2 3 5 5 5 5 5 5 5 5 5 5 5 5 5 5 5 6 6 6
1 2 1 1 1 1 2 2 2 3 2 1 1 1 1 1 2 2 1 3 4 4 4 4 4 5 5 5 5 5 4 4 5 5 5 5 5 6
1 2 2 2 2 2 2 2 2 2 2 1 0 0 0 1 1 1 1 1 1 3 3 3 4 4 4 4 5 5 5 5 5 4 4 4 4 4
2 2 2 2 2 2 2 2 2 2 3 2 0 0 0 0 0 1 1 1 1 2 2 2 3 3 4 4 4 4 4 4 4 4 4 3 4 4
3 3 3 3 2 2 2 2 2 2 2 3 1 0 0 0 1 1 1 1 1 1 1 1 1 2 2 3 3 3 3 3 3 3 3 3 3 4
3 3 3 4 4 4 3 3 3 3 3 2 2 0 0 0 1 1 1 1 1 1 2 2 2 2 2 1 2 2 2 1 2 2 3 3 3 3
2 2 3 4 6 5 4 4 5 3 3 3 2 1 1 1 1 1 1 0 1 1 1 1 1 1 1 2 1 1 1 1 1 1 2 3 3 3
3 2 2 3 5 6 6 7 7 6 5 4 3 3 3 3 2 2 1 1 1 1 1 1 0 1 1 1 1 1 1 2 2 1 2 3 3 4
3 3 2 2 3 2 4 5 5 6 7 6 5 5 4 5 4 3 3 2 2 1 1 1 1 1 2 2 2 2 2 2 2 2 2 3 4 4
3 3 3 2 3 3 3 3 3 3 5 4 5 5 5 4 5 4 4 2 0 0 1 1 1 2 2 2 3 3 2 2 3 3 3 3 4 4
2 3 3 3 5 5 4 3 2 2 3 4 5 4 5 5 5 3 3 2 1 2 1 1 1 1 2 2 2 3 2 2 3 3 3 3 3 3
2 2 5 5 5 6 5 5 4 3 2 2 2 2 2 3 6 5 5 4 2 2 2 2 1 1 1 2 1 2 2 3 3 4 4 4 3 2
3 2 3 6 6 7 6 5 6 4 3 2 1 1 1 1 2 2 3 4 4 3 3 3 2 2 2 2 2 2 1 1 2 3 4 4 3 2
4 3 4 6 6 6 5 6 6 4 3 2 2 1 2 2 2 1 2 2 2 3 3 4 3 3 2 2 2 2 1 2 1 2 2 4 3 4
3 4 4 5 4 4 5 6 5 3 3 3 3 3 2 2 1 1 0 0 0 1 1 3 3 3 3 3 3 2 2 2 2 2 2 2 2 2
2 3 3 3 3 3 2 3 3 4 4 4 3 2 1 1 1 1 1 1 0 2 2 1 2 3 3 3 3 3 3 2 2 2 2 3 3 3
3 1 1 1 2 2 1 2 2 2 3 2 3 2 2 2 2 1 1 1 2 2 2 1 0 1 2 3 3 4 3 3 3 3 2 3 4 4
4 2 3 3 4 4 3 3 3 3 3 3 3 4 4 4 3 2 2 2 3 3 3 2 1 0 1 3 5 4 3 3 3 3 3 3 5 4
4 4 4 5 4 4 4 4 4 4 3 4 4 4 4 3 3 3 3 3 3 3 3 2 2 2 3 4 4 5 4 3 2 3 3 4 5 5
4 4 5 5 5 4 4 4 4 3 3 4 4 4 4 4 4 4 4 4 4 3 3 3 4 4 5 4 3 3 5 4 3 3 3 3 4 6
5 5 5 5 5 5 5 5 5 4 5 4 4 5 5 4 5 5 5 6 5 4 5 5 5 5 2 1 2 3 3 5 6 4 3 3 4 4
5 5 5 5 5 5 5 5 5 5 5 5 5 5 5 5 6 6 5 5 5 5 5 4 2 2 3 4 5 5 4 3 4 6 6 5 3 4
5 5 5 5 5 4 5 6 6 6 6 6 6 6 6 6 5 5 5 5 4 5 4 3 2 2 3 4 4 4 5 4 3 3 4 6 8 9
Wind_Direction
162 157 156 173 160 155 147 153 148 154 240 267 298 322 334 5 20 41 34 54 57 62 64 60 61 60 59 53 50 49 48 47 46 45 43 42 38 35
155 141 145 155 141 138 143 137 140 150 175 231 237 278 314 19 51 49 34 41 45 58 64 64 61 58 59 59 53 51 50 44 45 49 46 43 39 35
150 147 155 151 143 137 127 127 127 130 145 253 258 300 69 39 20 32 40 33 18 50 64 67 64 61 60 64 61 56 53 49 46 45 43 40 34 25
177 161 173 160 151 151 147 147 150 147 149 169 231 352 168 177 77 52 32 40 7 20 58 63 61 65 60 63 61 58 54 50 44 39 35 31 22 9
187 184 187 169 175 171 162 153 151 135 125 142 158 21 72 75 71 42 30 9 350 13 38 41 44 63 63 58 54 55 53 47 37 26 14 8 359 351
198 194 193 189 187 175 169 164 148 129 122 130 144 145 164 64 105 107 1 359 348 4 11 28 33 34 32 33 30 35 44 47 36 18 6 351 337 334
200 203 205 203 199 187 176 170 157 148 146 149 166 163 196 181 195 187 195 319 331 350 14 4 3 5 346 327 310 331 360 3 346 324 330 333 321 316
198 212 220 214 207 204 194 182 174 168 171 170 183 192 211 210 189 178 163 137 276 271 122 310 35 298 293 281 303 334 337 343 340 330 331 337 325 313
199 203 220 218 201 186 194 188 196 198 188 178 183 201 202 201 183 185 191 189 218 215 141 256 292 278 282 284 285 293 305 312 318 317 317 321 323 315
201 200 200 210 199 175 164 173 200 217 208 194 194 206 207 195 189 192 181 160 347 293 155 213 261 270 295 298 300 292 291 295 300 310 314 319 322 318
209 206 201 205 212 183 164 174 203 246 225 199 204 209 206 193 173 140 144 145 222 259 202 183 234 279 293 290 299 317 320 329 322 316 317 324 323 317
213 218 215 211 212 197 181 178 201 224 192 185 201 214 214 199 188 187 180 173 181 233 208 177 195 177 295 282 297 316 320 322 325 320 314 311 314 308
202 218 226 219 214 206 199 199 208 191 169 169 173 191 188 199 206 206 198 183 183 216 196 171 180 186 211 273 294 285 273 281 300 308 310 310 312 310
205 214 220 217 212 208 208 212 202 172 148 150 165 202 217 226 225 215 213 201 206 210 188 172 181 185 187 231 266 284 279 260 257 282 296 311 305 300
208 213 216 210 207 209 212 204 185 165 162 178 203 221 222 212 177 146 298 153 14 294 206 194 190 185 187 209 233 248 273 275 248 263 282 282 283 287
208 209 210 203 194 204 211 201 186 183 182 197 209 206 170 171 192 186 197 190 199 296 296 252 211 193 208 223 221 241 236 250 270 261 268 273 273 260
164 140 155 169 185 198 206 203 193 187 199 195 190 191 194 199 214 200 187 186 201 235 268 302 300 225 228 216 227 238 240 247 249 252 259 276 269 262
159 181 200 202 204 205 205 209 207 206 206 198 198 198 201 204 208 203 197 209 221 230 236 227 170 45 326 281 228 233 242 249 251 242 234 261 278 272
183 203 209 211 212 210 210 209 212 210 200 196 202 205 205 206 205 209 208 221 231 231 234 209 193 188 234 266 266 215 220 245 248 254 244 244 265 276
210 214 218 217 213 211 212 214 212 200 197 202 205 208 206 205 208 213 212 217 224 228 232 223 214 212 221 239 252 257 226 228 238 257 267 264 266 278
223 226 225 221 217 214 213 212 209 208 205 201 207 210 208 208 216 218 216 219 223 223 228 234 231 219 212 197 259 266 257 234 230 241 256 273 284 288
226 229 230 225 219 215 212 209 210 212 210 211 211 210 210 210 216 218 218 217 224 224 233 239 210 188 197 225 247 259 270 274 260 261 257 245 247 262
227 230 232 229 223 216 213 212 213 216 215 215 213 211 208 213 218 217 220 223 227 225 225 227 219 216 226 231 246 259 266 275 281 282 274 274 268 271